Temp
62 62 61 61 61 61 61 61 61 61 61 61 62 62 62 61 61 64 60 72 76 73 71 83 85 85 87 83 86 90 74 70 75 77 81 88 87 96 101 95 98 101 96 88 81
61 61 61 61 61 61 61 61 61 61 61 61 61 62 61 61 62 62 73 73 73 71 77 78 78 82 78 79 82 76 72 74 83 85 83 84 86 91 93 91 93 97 100 95 80
61 61 61 61 61 60 60 60 61 61 61 61 61 61 61 63 59 67 77 73 73 73 80 83 83 82 76 80 79 78 69 81 86 82 86 82 84 88 88 86 93 91 91 91 96
61 61 61 61 61 60 60 60 60 61 61 61 61 60 61 63 55 78 76 74 73 78 77 78 79 75 74 72 80 73 79 78 84 85 82 79 83 79 85 90 96 97 97 94 88
60 60 60 60 60 60 60 59 60 60 60 60 61 60 60 59 63 82 75 75 77 76 74 75 75 75 72 76 78 76 79 82 83 83 82 82 79 78 79 90 95 96 96 95 85
60 60 60 60 60 60 59 59 59 59 59 60 60 60 58 54 84 89 85 78 78 75 74 78 78 81 76 76 76 80 80 82 83 82 82 77 77 77 80 85 86 92 92 94 96
59 59 59 59 59 59 60 59 58 59 60 60 60 62 59 62 85 90 88 84 84 78 74 81 84 80 80 75 83 81 74 78 78 79 76 79 71 72 80 83 84 87 91 94 96
58 58 58 59 59 59 60 59 58 59 60 61 61 60 56 81 84 81 86 85 86 84 82 85 86 82 79 83 79 74 72 63 75 76 77 74 62 76 83 80 81 83 85 90 95
58 58 58 58 59 59 59 58 59 60 61 61 58 57 59 80 76 83 86 81 82 82 83 87 84 77 78 71 68 71 58 56 61 79 75 69 63 74 79 81 77 79 82 88 93
58 58 58 58 58 58 58 58 61 58 61 63 62 53 62 69 80 83 88 86 79 78 76 77 76 69 71 69 56 62 60 62 62 74 75 65 64 73 78 78 76 79 81 86 87
59 58 57 58 57 57 58 63 55 50 56 59 63 64 76 81 86 81 86 82 79 74 65 72 66 61 66 70 71 66 65 63 70 76 70 67 68 71 76 77 75 77 79 83 84
58 58 57 57 57 57 58 58 65 65 56 64 67 71 77 84 73 79 86 73 71 63 70 67 61 70 74 73 71 70 66 67 73 73 71 69 66 72 74 75 77 79 79 80 82
58 57 57 57 56 56 58 60 72 72 56 67 68 70 76 80 73 74 80 76 69 65 66 63 67 74 72 70 69 69 67 68 69 74 74 69 64 67 73 75 78 79 82 83 82
57 56 56 56 53 66 64 73 72 72 48 62 66 71 76 77 70 83 83 78 72 66 68 68 74 70 70 69 71 63 74 73 70 67 58 69 53 64 69 70 74 76 80 82 84
56 56 56 55 59 61 70 74 75 65 36 69 69 85 78 71 75 75 84 79 68 69 70 65 69 69 67 69 74 68 76 72 71 67 65 65 58 67 70 67 71 77 81 82 84
56 56 56 59 58 64 73 74 65 44 38 62 71 68 68 72 74 76 76 82 80 72 73 71 80 76 73 76 76 78 72 71 70 67 54 62 62 62 67 68 71 75 78 80 83
55 55 54 60 62 74 71 61 40 38 65 60 62 68 67 66 70 70 67 67 64 59 60 68 71 77 78 71 75 73 64 52 51 52 51 67 62 65 74 75 75 75 74 76 81
54 53 58 62 66 68 63 45 36 54 53 64 67 67 63 68 69 68 65 63 70 69 63 58 55 71 77 72 67 68 65 55 45 48 55 67 58 66 78 80 80 77 75 77 77
53 69 71 71 73 68 51 37 42 49 53 53 63 61 62 67 68 66 65 65 69 72 61 60 59 76 76 78 76 68 62 71 57 58 54 62 64 73 76 75 76 76 76 76 77
57 62 67 72 74 64 46 41 48 51 53 53 48 63 58 63 63 63 63 70 69 75 76 68 58 71 74 77 77 71 75 59 60 44 40 55 58 59 67 70 73 73 73 74 77
61 62 70 72 71 52 43 45 52 54 53 48 52 54 62 63 65 62 63 70 74 74 76 69 64 61 71 67 66 68 61 66 65 62 50 41 42 70 69 72 72 74 75 75 77
60 56 70 71 51 54 50 57 52 52 52 51 53 52 54 59 63 62 62 68 77 76 68 71 63 57 63 73 76 73 68 66 55 54 59 52 52 64 72 72 74 75 76 78 78
53 61 70 69 44 49 58 57 55 51 51 49 49 55 57 54 54 65 67 71 78 74 69 69 58 50 54 58 70 66 69 69 67 63 55 50 44 70 74 70 69 73 74 77 77
51 55 57 55 62 54 49 47 46 58 55 51 50 54 52 51 58 61 62 68 73 72 62 67 61 54 45 53 63 60 65 68 62 49 54 58 55 63 69 69 70 74 76 77 76
54 50 52 39 45 50 49 46 47 49 56 56 51 50 51 45 55 56 62 64 69 62 67 66 56 59 58 53 60 62 63 65 61 62 52 59 57 61 62 63 72 74 75 75 75
48 48 54 50 56 53 47 43 47 50 47 47 45 51 51 45 56 55 57 61 60 64 64 66 53 55 52 61 60 56 60 61 62 62 58 58 57 66 71 75 72 73 73 71 72
56 56 50 49 55 50 49 48 50 54 56 57 52 48 50 54 55 58 63 68 67 62 61 58 47 47 43 52 57 51 60 63 64 66 64 59 66 72 69 70 71 72 73 72 73
MSLP
1017.49 1017.15 1016.87 1016.66 1016.35 1016.12 1015.90 1015.76 1015.66 1015.45 1015.12 1014.87 1014.56 1014.54 1014.42 1014.13 1013.81 1013.36 1011.64 1009.63 1009.59 1009.73 1010.10 1009.19 1008.66 1008.32 1007.93 1007.20 1006.44 1005.52 1004.71 1003.46 1002.41 1001.66 1000.53 1000.26 999.99 999.62 999.02 999.03 999.03 998.66 999.45 1001.65 1002.62
1017.39 1017.08 1016.77 1016.49 1016.22 1016.09 1015.77 1015.55 1015.36 1015.30 1014.98 1014.69 1014.50 1014.41 1014.39 1014.19 1013.41 1011.31 1008.95 1008.98 1009.12 1009.99 1009.76 1008.65 1007.89 1007.82 1007.37 1006.90 1006.32 1005.78 1004.49 1003.24 1002.45 1001.75 1001.02 1002.19 1001.89 1001.03 999.49 999.86 999.66 999.24 1000.13 1002.03 1004.09
1017.27 1016.91 1016.65 1016.27 1015.97 1015.68 1015.58 1015.34 1015.10 1015.03 1014.83 1014.55 1014.41 1014.38 1014.39 1014.27 1012.60 1007.65 1005.85 1007.76 1008.55 1009.60 1009.19 1008.25 1007.71 1007.05 1006.75 1006.31 1005.81 1005.29 1004.73 1003.48 1002.27 1002.90 1002.27 1003.41 1002.92 1002.44 1000.68 1000.27 1000.06 999.92 1000.78 1001.91 1001.82
1017.17 1016.83 1016.44 1016.26 1015.84 1015.50 1015.35 1015.16 1014.92 1014.72 1014.61 1014.44 1014.31 1014.28 1014.22 1013.64 1009.34 1006.19 1005.83 1006.76 1008.16 1008.95 1008.93 1008.07 1007.15 1006.23 1005.85 1005.41 1005.29 1004.79 1004.75 1004.08 1003.07 1003.37 1003.94 1004.29 1004.53 1004.01 1002.57 1001.12 1001.08 1000.81 1000.93 1001.87 1002.85
1017.06 1016.70 1016.41 1016.03 1015.81 1015.47 1015.05 1014.98 1014.80 1014.49 1014.34 1014.26 1014.16 1014.20 1014.03 1011.46 1008.01 1006.35 1006.17 1006.81 1008.02 1008.53 1008.01 1007.30 1006.40 1005.85 1004.87 1004.98 1004.93 1004.31 1004.05 1003.98 1003.61 1004.14 1004.52 1005.25 1005.14 1005.33 1004.20 1002.82 1002.28 1001.82 1001.56 1001.50 1002.92
1016.84 1016.51 1016.17 1015.70 1015.43 1015.19 1014.89 1014.59 1014.51 1014.31 1014.08 1014.04 1013.96 1014.02 1013.17 1009.58 1005.45 1004.81 1005.64 1006.62 1006.77 1007.42 1007.30 1006.70 1005.52 1005.27 1005.04 1004.45 1004.10 1004.16 1003.87 1003.67 1003.65 1003.98 1004.63 1005.44 1005.76 1006.20 1005.21 1004.79 1003.97 1002.76 1002.36 1001.77 1001.58
1016.78 1016.47 1016.02 1015.59 1015.22 1014.89 1014.59 1014.28 1014.12 1014.00 1013.81 1013.69 1013.75 1013.50 1011.47 1007.52 1004.64 1004.13 1004.53 1004.67 1005.32 1006.21 1006.21 1005.95 1005.33 1004.72 1004.68 1004.06 1003.94 1003.83 1003.85 1003.75 1004.14 1004.67 1005.11 1005.97 1005.90 1005.97 1006.09 1005.68 1004.67 1003.57 1002.95 1002.35 1001.57
1016.58 1016.31 1015.86 1015.45 1014.99 1014.73 1014.36 1014.02 1013.72 1013.57 1013.43 1013.32 1013.46 1013.00 1009.43 1005.35 1004.99 1004.98 1004.38 1004.08 1004.41 1005.26 1005.71 1005.50 1005.39 1004.62 1004.05 1003.99 1003.83 1003.76 1004.06 1004.24 1004.06 1004.94 1005.52 1006.39 1006.17 1005.72 1005.83 1006.03 1005.22 1004.58 1004.18 1003.17 1002.16
1016.44 1015.97 1015.61 1015.17 1014.76 1014.36 1014.12 1013.86 1013.39 1012.97 1012.75 1013.02 1013.19 1012.17 1007.15 1003.82 1004.21 1003.90 1003.90 1003.52 1004.05 1005.04 1005.40 1004.98 1004.95 1004.48 1004.04 1003.50 1003.19 1003.14 1003.70 1004.95 1005.11 1003.75 1004.91 1006.38 1006.54 1006.45 1006.25 1005.61 1005.59 1005.25 1004.50 1003.33 1002.37
1016.08 1015.74 1015.28 1014.82 1014.39 1014.08 1013.80 1013.51 1013.04 1013.05 1012.64 1012.50 1011.74 1010.85 1006.36 1003.09 1002.78 1003.04 1002.88 1002.83 1003.58 1004.48 1004.78 1004.23 1004.15 1003.93 1003.28 1002.76 1001.75 1002.35 1003.53 1004.54 1004.25 1003.22 1004.04 1006.06 1006.12 1005.88 1005.37 1005.38 1005.30 1005.17 1004.71 1003.37 1002.83
1015.76 1015.46 1015.18 1014.71 1014.27 1013.89 1013.57 1012.54 1012.71 1012.22 1011.36 1008.84 1006.85 1005.12 1002.11 1001.83 1001.71 1001.98 1002.01 1002.39 1003.25 1003.80 1003.38 1003.20 1003.23 1002.56 1002.25 1002.14 1002.24 1003.79 1003.09 1003.13 1002.56 1002.54 1004.06 1004.71 1004.85 1005.28 1004.88 1005.18 1005.26 1005.06 1004.67 1003.60 1003.70
1015.49 1015.07 1014.67 1014.27 1013.97 1013.78 1013.51 1011.60 1008.86 1008.96 1007.85 1006.46 1005.43 1004.00 1002.47 1001.08 1001.14 1001.30 1001.72 1001.99 1002.66 1002.98 1002.98 1002.96 1002.04 1001.96 1002.04 1001.87 1001.61 1001.44 1001.47 1001.32 1001.24 1002.43 1003.85 1003.86 1004.46 1004.76 1004.81 1004.72 1004.52 1004.57 1004.40 1004.26 1003.42
1015.00 1014.62 1014.31 1013.81 1013.34 1012.83 1011.71 1010.07 1009.19 1008.80 1007.21 1003.32 1003.18 1002.56 1001.41 1000.96 1000.43 1000.56 1001.32 1001.20 1001.51 1001.93 1002.04 1001.73 1001.71 1001.76 1001.63 1000.96 1000.51 1000.73 1000.65 1000.38 1000.24 1001.15 1002.49 1003.44 1004.01 1004.33 1004.60 1004.57 1004.25 1004.21 1004.20 1004.00 1003.94
1014.57 1014.30 1014.02 1013.64 1013.10 1010.34 1009.05 1008.08 1008.80 1008.75 1006.57 1001.04 1000.70 1000.92 1000.64 1000.72 999.80 1000.01 1000.78 1000.67 1001.05 1000.93 1001.21 1001.08 1001.02 1000.87 1000.38 1000.01 1000.02 999.94 1000.04 999.84 1000.27 1000.63 1001.61 1003.03 1002.85 1002.81 1003.54 1003.68 1003.54 1003.62 1003.72 1003.94 1004.17
1014.24 1013.91 1013.58 1013.33 1011.94 1010.00 1008.15 1007.48 1007.63 1008.77 1004.52 997.90 998.73 998.37 999.41 999.57 998.59 999.49 1000.20 999.85 1000.03 999.90 1000.34 1000.07 999.60 999.82 999.56 999.59 999.69 999.61 999.47 999.84 1000.19 1000.30 1001.16 1001.41 1002.07 1000.73 1002.02 1002.78 1002.80 1002.73 1002.92 1003.21 1003.68
1013.50 1012.93 1012.96 1012.12 1011.40 1009.35 1008.09 1007.84 1008.56 1007.37 1001.92 997.89 997.55 997.98 998.52 998.62 998.27 999.16 999.66 999.43 999.45 999.32 999.42 999.11 998.76 998.65 999.11 999.15 999.29 999.38 999.95 999.97 1000.58 1000.51 1000.75 1000.62 1000.48 1000.14 1000.19 1001.17 1002.47 1002.87 1003.18 1003.35 1003.72
1012.67 1012.08 1012.20 1011.65 1008.52 1006.95 1008.31 1008.43 1008.32 1004.85 999.36 998.03 997.60 997.46 997.64 997.67 997.65 998.45 998.98 998.94 998.55 998.54 998.30 998.55 997.96 997.96 998.19 998.45 998.95 999.20 999.81 999.98 1000.41 1000.59 1000.21 999.94 999.74 999.08 998.47 999.93 1001.29 1002.53 1003.29 1003.74 1004.29
1011.36 1009.78 1008.83 1008.87 1008.54 1008.16 1007.97 1008.64 1006.58 1002.65 1000.92 999.18 997.79 997.57 996.98 997.04 996.87 997.81 998.46 998.39 998.25 997.96 997.68 997.75 997.65 997.17 997.75 997.95 998.22 998.71 999.68 999.47 999.68 1000.32 999.75 999.34 998.51 997.94 997.76 999.36 1000.95 1002.57 1003.70 1004.30 1004.88
1010.36 1007.44 1005.93 1006.27 1006.77 1007.52 1008.15 1007.53 1005.52 1003.75 1002.99 1001.45 998.42 997.36 996.51 996.39 996.26 997.21 997.63 997.53 997.40 997.20 996.88 996.76 996.85 996.97 997.45 997.56 997.74 998.25 998.57 998.90 999.53 1001.09 1000.35 998.86 999.43 999.66 999.64 1000.40 1001.24 1002.34 1003.25 1003.99 1004.50
1009.82 1007.29 1005.15 1005.00 1006.04 1007.15 1007.69 1006.53 1005.24 1005.06 1004.18 1003.27 1000.74 997.42 996.47 996.11 995.92 996.44 996.94 996.88 996.64 996.60 996.54 996.80 996.78 997.27 997.29 998.04 997.82 997.66 998.69 999.42 1000.15 1000.41 1000.72 999.71 999.77 999.79 1000.02 1000.60 1001.53 1002.45 1003.36 1004.14 1004.82
1008.46 1005.58 1004.27 1004.90 1005.84 1006.65 1006.00 1005.65 1004.86 1005.10 1005.31 1004.71 1002.29 999.90 997.23 996.11 995.84 996.08 996.25 996.37 996.30 996.26 996.57 997.58 997.59 998.34 997.76 997.95 997.69 997.97 999.54 998.79 999.09 999.29 999.93 1001.79 1002.71 1000.09 1000.34 1000.89 1001.51 1002.25 1003.33 1004.31 1004.76
1008.25 1005.23 1004.47 1004.71 1005.12 1005.04 1004.60 1003.81 1004.40 1004.97 1005.46 1005.06 1004.05 1002.25 1000.20 997.89 996.47 996.11 995.79 995.69 995.87 995.96 996.42 997.33 998.21 998.05 998.34 998.43 998.43 997.99 998.14 998.53 998.99 999.60 999.88 1001.53 1002.80 1003.45 1000.77 1001.42 1002.04 1002.69 1003.44 1003.90 1004.62
1009.21 1005.40 1004.42 1004.43 1004.54 1004.11 1003.62 1003.47 1004.01 1004.68 1004.87 1005.10 1004.11 1002.91 1001.53 999.95 998.81 996.68 995.98 996.49 995.72 995.95 996.74 997.82 999.25 999.66 999.94 1000.52 998.79 998.60 998.66 998.74 1000.02 1000.14 1000.65 1001.46 1003.86 1002.75 1001.83 1002.40 1003.51 1003.51 1004.01 1004.23 1004.75
1010.27 1005.22 1004.83 1005.08 1004.11 1003.95 1004.24 1004.09 1003.99 1003.89 1004.11 1004.44 1004.17 1003.39 1002.83 1001.43 999.62 997.74 997.19 997.42 997.07 997.33 998.55 998.44 999.58 1000.39 1001.44 1000.91 1000.20 999.78 999.33 999.42 1000.34 1001.35 1001.79 1001.60 1003.27 1002.89 1002.27 1002.68 1003.39 1003.47 1003.71 1004.22 1004.80
1009.76 1007.40 1006.88 1006.50 1005.73 1005.05 1004.83 1004.81 1004.19 1003.67 1003.57 1003.49 1003.53 1003.29 1002.90 1001.89 1000.38 998.75 998.46 998.41 998.26 998.90 999.05 999.45 1000.53 1001.48 1002.24 1002.57 1001.80 1000.33 1000.09 1000.09 1000.72 1001.07 1002.31 1002.23 1002.48 1003.19 1003.74 1003.40 1003.30 1003.61 1004.08 1004.55 1004.95
1010.66 1009.39 1008.42 1007.34 1005.33 1004.75 1004.71 1004.80 1004.16 1003.78 1003.93 1003.22 1003.15 1002.79 1002.72 1002.48 1000.90 999.55 999.44 998.97 998.87 999.69 999.86 1000.60 1001.89 1002.87 1003.29 1002.96 1002.49 1001.79 1001.43 1001.22 1001.24 1001.54 1002.04 1002.52 1003.24 1003.76 1003.13 1003.14 1003.73 1004.15 1004.47 1005.30 1005.73
1011.90 1010.97 1009.78 1007.50 1005.39 1004.72 1004.77 1004.93 1003.96 1003.55 1002.92 1002.61 1002.85 1002.72 1002.03 1001.78 1001.75 1000.73 999.20 999.47 999.42 999.80 1000.43 1001.63 1003.59 1004.37 1004.45 1004.18 1002.96 1002.32 1001.15 1000.98 1001.14 1001.29 1001.68 1001.81 1001.95 1002.06 1002.94 1003.66 1004.16 1004.48 1004.89 1005.43 1005.85
Wind_Speed
13 13 13 13 13 12 10 9 9 10 10 11 10 10 11 12 12 15 21 14 11 3 6 12 20 17 18 16 16 20 15 16 22 20 24 15 22 1 12 7 5 8 15 9 19
13 12 12 12 12 13 12 11 9 10 11 10 10 9 10 9 15 22 17 17 15 7 12 14 20 21 16 19 16 16 13 21 17 15 14 7 24 10 10 7 9 12 7 22 30
13 12 12 13 11 11 13 13 11 10 11 10 10 9 10 10 15 19 25 28 21 12 14 16 19 23 24 20 21 20 15 18 14 11 2 7 20 20 1 9 5 4 14 16 9
13 13 12 14 13 10 11 12 12 10 11 9 10 9 10 14 6 8 7 26 20 16 16 18 20 25 26 26 23 23 22 22 20 5 4 4 12 18 18 10 11 11 6 4 12
12 13 14 14 14 11 9 11 13 11 10 9 10 9 11 11 16 7 15 23 20 19 20 22 22 24 26 25 24 26 24 23 21 9 3 5 10 10 22 21 16 13 14 10 17
12 13 14 14 13 12 10 10 12 12 10 11 10 7 12 19 15 19 15 21 16 21 22 23 21 22 24 25 27 23 23 23 22 15 10 10 12 12 19 21 24 14 11 16 10
13 14 15 14 13 13 11 10 11 12 12 11 10 10 17 23 17 3 11 17 17 22 23 23 23 21 23 26 24 24 23 14 12 11 7 13 20 20 17 17 21 18 16 15 13
13 14 15 16 12 14 13 10 11 14 14 11 9 11 12 16 20 22 10 13 11 19 24 21 23 23 23 22 24 26 14 17 24 19 13 9 16 20 17 19 16 16 20 22 15
13 13 14 16 14 14 12 11 14 16 11 8 8 12 12 10 15 19 23 15 13 17 20 19 19 24 23 23 21 22 12 12 27 21 17 15 13 21 24 25 12 15 17 21 14
12 13 15 14 15 12 11 15 10 5 5 8 11 7 12 15 17 19 18 15 16 18 20 22 16 20 22 20 18 24 22 24 34 23 19 15 18 17 18 17 11 13 19 13 13
16 13 16 14 14 12 11 7 6 5 10 12 15 12 7 21 15 19 17 14 18 18 18 23 18 22 27 24 25 25 21 26 23 15 20 19 16 13 13 13 16 12 13 14 11
18 13 15 17 15 13 8 9 17 5 13 27 26 25 24 6 14 19 19 17 22 20 21 18 20 24 22 26 27 28 26 23 20 21 18 16 14 13 17 14 21 14 7 11 16
16 13 15 16 16 12 17 20 17 15 10 17 28 24 17 12 18 19 21 19 26 24 24 17 20 21 26 28 26 23 25 22 13 12 15 9 14 13 13 18 19 13 12 10 5
17 14 14 14 10 9 11 13 15 4 8 15 26 18 23 16 15 21 22 19 17 24 24 20 22 25 23 21 20 22 23 22 21 16 12 17 13 19 16 18 19 23 18 15 11
19 17 15 7 13 10 10 1 11 4 6 16 26 13 19 23 16 23 24 21 21 19 20 21 21 24 20 23 22 21 23 11 15 13 16 20 15 10 20 16 16 11 11 12 12
22 21 16 11 12 15 11 5 5 7 8 5 18 20 24 22 21 24 24 20 18 18 21 22 17 21 22 21 21 21 14 16 17 11 13 19 15 14 17 21 20 15 9 8 8
25 26 15 11 10 13 9 6 4 7 7 16 24 26 25 21 23 24 25 22 17 18 16 18 21 19 18 19 15 15 11 8 9 11 13 18 16 14 12 23 22 19 12 7 3
28 34 13 14 17 15 7 4 9 14 5 10 16 24 23 24 23 24 23 21 23 21 15 17 14 22 14 16 21 22 18 11 17 12 16 18 17 15 12 19 19 18 16 13 10
32 11 8 11 15 8 5 5 4 7 8 11 12 23 19 21 18 22 22 23 22 22 17 17 13 18 17 18 16 20 19 19 11 14 11 11 13 13 20 19 21 18 15 15 8
11 11 13 17 14 12 4 5 6 2 10 8 11 18 23 25 22 25 22 23 22 21 19 9 9 18 15 13 17 17 12 17 9 16 4 5 14 11 18 19 20 19 14 9 7
7 7 3 16 14 5 6 8 5 1 3 4 13 11 16 23 23 21 22 20 24 22 17 11 10 15 13 14 19 10 13 14 14 11 11 4 7 8 16 15 15 17 15 12 7
7 8 9 9 9 7 12 15 5 5 11 8 8 14 12 20 17 20 22 21 25 20 20 13 6 13 16 16 16 15 14 11 7 12 7 6 8 3 4 10 9 14 14 12 7
8 10 8 11 7 12 16 17 8 11 7 6 8 10 11 11 9 17 17 8 21 12 12 12 1 8 8 10 15 10 13 11 12 5 8 5 1 10 11 15 10 10 7 6 9
7 6 3 4 12 15 8 4 5 12 11 7 5 14 11 9 11 15 8 8 2 11 8 5 3 9 7 5 9 16 16 8 5 2 6 11 16 18 6 12 9 8 7 5 9
5 5 4 1 8 10 5 6 16 6 9 12 6 14 12 5 17 9 11 10 8 4 3 3 4 2 3 5 8 8 9 12 10 6 10 13 7 9 6 9 2 3 3 6 8
7 7 8 15 17 10 3 6 19 6 3 6 8 7 12 17 11 16 12 14 12 6 7 4 3 6 1 6 1 4 7 10 10 10 6 10 14 22 17 7 3 2 4 1 6
9 11 6 10 12 8 3 4 8 6 11 9 10 10 11 6 10 10 19 14 11 13 10 7 4 4 3 10 8 11 14 11 9 9 11 10 1 7 10 5 2 3 1 3 4
Wind_Direction
328 327 329 327 325 318 315 289 296 299 300 303 302 288 289 293 289 261 250 242 224 262 320 239 218 227 235 247 247 258 243 242 247 229 257 1 314 147 250 341 323 314 84 95 21
321 324 328 328 330 320 316 313 289 295 294 294 304 286 279 284 278 268 244 238 248 143 218 225 218 214 226 231 233 239 240 239 244 275 235 334 297 288 223 231 249 268 92 133 121
325 325 323 322 322 324 320 311 303 288 294 299 299 293 275 275 268 246 225 225 223 194 230 229 231 210 219 221 226 218 244 248 248 27 40 188 305 329 304 246 227 58 34 11 197
324 326 323 320 317 314 316 312 302 296 291 297 299 296 278 254 258 75 121 193 192 205 224 227 227 229 213 220 221 225 219 251 269 80 17 307 335 318 325 264 6 356 12 66 327
329 330 325 322 316 309 310 306 301 294 291 290 293 284 269 231 243 204 134 163 181 202 211 212 221 220 222 217 221 230 226 229 250 144 230 322 295 306 301 324 339 321 326 312 150
326 324 318 318 316 306 298 295 294 292 283 281 275 266 252 261 255 227 203 158 178 195 207 217 213 214 228 225 222 223 235 228 235 265 203 261 290 302 286 314 314 284 285 285 281
336 326 321 316 316 312 301 292 292 290 278 275 267 249 261 248 269 234 220 189 197 195 202 210 227 217 220 228 227 230 234 223 236 267 225 265 266 249 269 284 291 331 300 287 278
327 322 322 317 318 313 309 299 299 291 278 264 254 256 257 253 233 265 259 258 188 193 216 207 221 238 225 234 220 228 204 255 219 201 235 171 255 274 266 250 274 287 297 290 263
321 319 317 318 317 309 310 297 295 295 267 219 223 226 259 195 228 226 226 220 170 186 210 211 212 230 223 222 220 213 228 195 272 219 184 180 230 256 251 241 252 265 279 270 264
314 317 309 315 312 309 306 289 298 271 193 196 255 230 247 231 198 213 207 205 171 185 197 211 207 218 226 213 219 205 187 243 223 210 199 184 235 250 259 235 230 256 288 277 307
309 313 316 309 305 305 305 241 207 207 222 221 192 227 183 218 169 194 181 184 177 190 192 198 206 208 217 225 228 214 205 221 235 191 184 211 223 235 226 222 213 248 272 274 273
308 307 313 304 297 295 272 246 234 2 276 222 250 239 273 201 174 186 176 178 180 190 196 191 214 210 212 222 223 215 215 228 231 186 198 198 230 240 255 219 218 217 275 257 267
305 305 305 304 298 276 239 242 270 288 284 276 208 229 222 241 188 178 189 186 181 189 200 195 200 220 212 225 215 222 235 236 234 172 183 215 233 233 228 251 219 218 251 275 182
307 302 304 311 282 260 269 237 226 251 274 239 180 216 229 200 230 171 196 180 194 194 194 208 206 214 210 222 218 219 228 242 212 190 217 197 243 206 211 220 204 221 198 178 199
304 298 297 265 294 279 279 328 173 154 257 184 173 181 200 196 174 171 198 193 197 191 192 213 208 198 217 213 209 232 219 221 242 215 211 205 220 239 187 208 212 219 210 185 152
299 293 297 274 222 250 292 120 126 232 235 196 159 179 186 198 197 166 199 216 212 208 199 217 216 211 202 217 223 228 234 196 234 230 210 239 203 233 191 196 199 210 138 92 107
306 297 284 259 247 217 201 148 210 248 154 155 168 168 185 190 197 170 193 206 209 198 199 217 214 218 193 213 202 216 210 210 200 226 240 227 212 236 187 181 190 183 132 127 153
308 301 257 208 229 258 147 189 241 224 318 295 186 180 187 186 196 172 189 200 215 208 189 207 214 187 188 209 200 201 207 218 199 211 228 232 215 228 132 178 152 134 146 166 152
312 300 219 183 209 143 155 227 242 343 338 333 245 190 189 193 179 175 196 206 203 205 221 206 206 184 191 219 217 190 221 237 309 295 253 233 99 99 123 127 141 146 145 159 147
309 292 265 148 166 167 198 259 259 344 342 334 295 192 205 185 206 180 196 206 202 216 225 241 213 192 175 210 233 228 210 227 212 252 351 227 153 164 164 157 150 154 152 129 146
268 268 95 158 160 184 223 233 231 85 238 285 297 284 235 193 196 180 189 199 218 212 220 220 256 204 172 197 218 187 232 253 245 246 230 156 330 295 166 166 166 149 148 143 166
297 277 143 186 197 218 238 239 197 200 193 241 275 275 292 285 211 179 200 208 202 206 212 155 319 164 204 189 231 236 226 234 243 253 308 77 131 80 76 125 157 162 154 150 130
298 286 161 202 228 232 241 251 183 192 196 188 260 236 312 285 228 210 206 334 204 185 213 139 1 187 173 318 229 233 235 254 223 347 257 250 277 284 163 155 158 227 113 183 169
282 289 156 254 248 265 322 248 261 192 217 178 242 252 279 258 261 225 124 191 275 107 44 77 172 172 204 185 241 213 239 228 119 112 270 251 151 192 142 135 164 199 185 219 147
248 305 18 346 314 296 348 346 248 236 214 188 211 228 239 256 229 165 176 167 217 53 94 120 206 163 139 79 288 270 246 236 239 270 195 257 6 332 78 288 113 75 357 324 319
344 334 338 297 274 275 159 154 291 191 251 197 239 292 225 235 214 171 169 170 171 156 164 126 139 70 83 226 259 154 214 248 254 237 319 285 267 179 191 98 64 228 153 283 279
334 320 324 292 302 312 352 294 280 200 216 225 212 252 247 249 300 301 155 193 180 165 171 117 93 74 280 283 233 227 228 223 229 233 215 227 271 86 89 102 172 217 208 215 235